FIN1422 EDDH-EFHK

Flight info

Callsign FIN1422
Flight time N/A
Altitude 41000
Route LUGEG3G/33 LUGEG P605 MOSAT DCT TIDVU DCT KAL DCT NEREN DCT ALAMI DCT OKEVU DCT EVADI Y370 DIVAM
Aircraft A359/H-SDE2E3GHIJ3J4J5LM1ORWXY/LB1D1

Departure

Time 2026-04-22 08:43
Airport Hamburg Helmut Schmidt Airport (EDDH)

Arrival

Time N/A
Airport Helsinki Vantaa Airport (EFHK)
Time Latitude Longitude Altitude Speed Heading
2026-04-22 08:09 53.63205 10.00353 55 ft 0 kts 86°
2026-04-22 08:36 53.63204 10.00317 51 ft 4 kts 86°
2026-04-22 08:36 53.63203 10.00280 49 ft 4 kts 89°
2026-04-22 08:36 53.63208 10.00239 47 ft 4 kts 129°
2026-04-22 08:37 53.63228 10.00214 47 ft 4 kts 167°
2026-04-22 08:37 53.63236 10.00211 47 ft 1 kts 175°
2026-04-22 08:39 53.63227 10.00212 55 ft 6 kts 176°
2026-04-22 08:39 53.63145 10.00222 55 ft 11 kts 176°
2026-04-22 08:40 53.63069 10.00216 50 ft 11 kts 196°
2026-04-22 08:40 53.63006 10.00155 48 ft 11 kts 212°
2026-04-22 08:40 53.62956 10.00102 51 ft 7 kts 212°
2026-04-22 08:40 53.62915 10.00063 51 ft 6 kts 203°
2026-04-22 08:41 53.62878 10.00035 49 ft 8 kts 208°
2026-04-22 08:41 53.62845 9.99960 50 ft 10 kts 243°
2026-04-22 08:41 53.62816 9.99864 46 ft 9 kts 244°
2026-04-22 08:41 53.62811 9.99815 46 ft 2 kts 290°
2026-04-22 08:42 53.62827 9.99783 51 ft 5 kts 319°
2026-04-22 08:42 53.62900 9.99721 46 ft 34 kts 333°
2026-04-22 08:42 53.63353 9.99325 48 ft 111 kts 333°
2026-04-22 08:42 53.64236 9.98574 224 ft 159 kts 332°
2026-04-22 08:43 53.65204 9.97760 1133 ft 152 kts 333°
2026-04-22 08:43 53.66137 9.96992 2126 ft 144 kts 334°
2026-04-22 08:43 53.67036 9.96222 2769 ft 147 kts 333°
2026-04-22 08:43 53.68024 9.95682 3250 ft 155 kts 353°
2026-04-22 08:44 53.68766 9.95798 3431 ft 172 kts 17°
2026-04-22 08:44 53.69999 9.97818 3797 ft 207 kts 56°
2026-04-22 08:44 53.70760 10.00038 4131 ft 230 kts 59°
2026-04-22 08:44 53.71632 10.02422 4550 ft 246 kts 52°
2026-04-22 08:45 53.72334 10.04007 5018 ft 250 kts 51°
2026-04-22 08:45 53.73394 10.06310 5717 ft 254 kts 51°
2026-04-22 08:45 53.74511 10.08650 6472 ft 256 kts 50°
2026-04-22 08:45 53.75642 10.10972 7261 ft 256 kts 50°
2026-04-22 08:46 53.76787 10.13303 7952 ft 260 kts 50°
2026-04-22 08:46 53.77948 10.15661 8651 ft 263 kts 50°
2026-04-22 08:46 53.79119 10.18051 9376 ft 265 kts 50°
2026-04-22 08:46 53.80305 10.20470 10118 ft 268 kts 50°
2026-04-22 08:47 53.81505 10.22923 10696 ft 275 kts 49°
2026-04-22 08:47 53.82760 10.25494 11016 ft 292 kts 50°
2026-04-22 08:47 53.84086 10.28215 11307 ft 307 kts 50°
2026-04-22 08:47 53.85480 10.31077 11601 ft 322 kts 50°
2026-04-22 08:48 53.86931 10.34060 11927 ft 333 kts 50°
2026-04-22 08:48 53.88416 10.37120 12424 ft 338 kts 50°
2026-04-22 08:48 53.89917 10.40217 12972 ft 341 kts 50°
2026-04-22 08:48 53.91428 10.43343 13552 ft 344 kts 50°
2026-04-22 08:49 53.92951 10.46498 14126 ft 347 kts 50°
2026-04-22 08:49 53.94486 10.49678 14645 ft 349 kts 50°
2026-04-22 08:49 53.96030 10.52881 15166 ft 351 kts 50°
2026-04-22 08:49 53.97557 10.56052 15723 ft 352 kts 50°
2026-04-22 08:50 53.99103 10.59269 16277 ft 353 kts 50°
2026-04-22 08:50 54.00660 10.62514 16840 ft 354 kts 50°
2026-04-22 08:50 54.02223 10.65773 17375 ft 356 kts 50°
2026-04-22 08:50 54.03796 10.69060 17897 ft 359 kts 49°
2026-04-22 08:51 54.05383 10.72378 18395 ft 362 kts 49°
2026-04-22 08:51 54.06979 10.75718 18890 ft 364 kts 49°
2026-04-22 08:51 54.08558 10.79026 19351 ft 365 kts 49°
2026-04-22 08:51 54.10162 10.82394 19799 ft 367 kts 49°
2026-04-22 08:52 54.11773 10.85780 20272 ft 368 kts 49°
2026-04-22 08:52 54.13387 10.89180 20736 ft 370 kts 49°
2026-04-22 08:52 54.15015 10.92612 21187 ft 371 kts 49°
2026-04-22 08:52 54.16640 10.96043 21634 ft 373 kts 49°
2026-04-22 08:53 54.18321 10.99423 22068 ft 374 kts 45°
2026-04-22 08:53 54.20126 11.02629 22500 ft 375 kts 44°
2026-04-22 08:53 54.21976 11.05807 22937 ft 377 kts 43°
2026-04-22 08:53 54.23844 11.08957 23366 ft 378 kts 43°
2026-04-22 08:54 54.25733 11.12113 23733 ft 381 kts 43°
2026-04-22 08:54 54.27643 11.15295 24099 ft 384 kts 43°
2026-04-22 08:54 54.29564 11.18496 24432 ft 386 kts 43°
2026-04-22 08:54 54.31489 11.21712 24770 ft 388 kts 43°
2026-04-22 08:55 54.33402 11.24916 25130 ft 390 kts 43°
2026-04-22 08:55 54.35351 11.28189 25460 ft 394 kts 43°
2026-04-22 08:55 54.37315 11.31495 25819 ft 396 kts 43°
2026-04-22 08:55 54.39281 11.34812 26201 ft 398 kts 44°
2026-04-22 08:56 54.41264 11.38163 26609 ft 401 kts 44°
2026-04-22 08:56 54.43252 11.41527 26993 ft 403 kts 44°
2026-04-22 08:56 54.45257 11.44923 27424 ft 406 kts 44°
2026-04-22 08:56 54.47269 11.48339 27815 ft 409 kts 44°
2026-04-22 08:57 54.49308 11.51805 28203 ft 413 kts 44°
2026-04-22 08:57 54.51357 11.55291 28671 ft 416 kts 44°
2026-04-22 08:57 54.53423 11.58811 29146 ft 418 kts 44°
2026-04-22 08:57 54.55498 11.62353 29595 ft 421 kts 44°
2026-04-22 08:58 54.57589 11.65928 30056 ft 424 kts 44°
2026-04-22 08:58 54.59688 11.69523 30480 ft 427 kts 44°
2026-04-22 08:58 54.61781 11.73113 30861 ft 430 kts 44°
2026-04-22 08:58 54.63914 11.76775 31230 ft 433 kts 44°
2026-04-22 08:59 54.66056 11.80461 31594 ft 436 kts 45°
2026-04-22 08:59 54.68212 11.84175 31947 ft 439 kts 45°
2026-04-22 08:59 54.70383 11.87921 32257 ft 442 kts 45°
2026-04-22 08:59 54.72567 11.91696 32584 ft 445 kts 45°
2026-04-22 09:00 54.74758 11.95488 32902 ft 447 kts 45°
2026-04-22 09:00 54.76970 11.99322 33247 ft 450 kts 45°
2026-04-22 09:00 54.79188 12.03174 33546 ft 452 kts 45°
2026-04-22 09:00 54.81409 12.07037 33899 ft 453 kts 45°
2026-04-22 09:01 54.83604 12.10863 34354 ft 452 kts 45°
2026-04-22 09:01 54.85819 12.14730 34709 ft 451 kts 45°
2026-04-22 09:01 54.88032 12.18599 35029 ft 452 kts 45°
2026-04-22 09:01 54.90248 12.22480 35350 ft 452 kts 45°
2026-04-22 09:02 54.92459 12.26359 35679 ft 452 kts 45°
2026-04-22 09:02 54.94670 12.30243 36011 ft 452 kts 45°
2026-04-22 09:02 54.96884 12.34140 36321 ft 452 kts 45°
2026-04-22 09:02 54.99093 12.38035 36618 ft 453 kts 45°
2026-04-22 09:03 55.01305 12.41940 36939 ft 453 kts 45°
2026-04-22 09:03 55.03516 12.45851 37252 ft 453 kts 45°
2026-04-22 09:03 55.05731 12.49775 37561 ft 453 kts 45°
2026-04-22 09:03 55.07945 12.53704 37886 ft 454 kts 46°
2026-04-22 09:04 55.10147 12.57619 38174 ft 454 kts 46°
2026-04-22 09:04 55.12361 12.61562 38463 ft 454 kts 46°
2026-04-22 09:04 55.14547 12.65460 38750 ft 454 kts 46°
2026-04-22 09:04 55.16755 12.69404 39041 ft 453 kts 46°
2026-04-22 09:05 55.18964 12.73358 39244 ft 454 kts 46°
2026-04-22 09:05 55.21179 12.77328 39459 ft 454 kts 46°
2026-04-22 09:05 55.23385 12.81291 39668 ft 455 kts 46°
2026-04-22 09:05 55.25595 12.85265 39830 ft 455 kts 46°
2026-04-22 09:06 55.27806 12.89248 40014 ft 456 kts 46°
2026-04-22 09:06 55.30021 12.93248 40173 ft 456 kts 46°
2026-04-22 09:06 55.32236 12.97252 40361 ft 457 kts 46°
2026-04-22 09:06 55.34451 13.01263 40519 ft 457 kts 46°
2026-04-22 09:07 55.36640 13.05235 40678 ft 458 kts 46°
2026-04-22 09:07 55.38854 13.09258 40831 ft 458 kts 46°
2026-04-22 09:07 55.41069 13.13290 40967 ft 459 kts 46°
2026-04-22 09:07 55.43293 13.17346 41113 ft 459 kts 46°
2026-04-22 09:08 55.45509 13.21393 41237 ft 460 kts 46°
2026-04-22 09:08 55.49951 13.29528 41266 ft 460 kts 46°
2026-04-22 09:09 55.54381 13.37671 41264 ft 460 kts 46°
2026-04-22 09:09 55.58807 13.45833 41291 ft 460 kts 46°
2026-04-22 09:10 55.63202 13.53966 41286 ft 459 kts 46°
2026-04-22 09:10 55.67608 13.62149 41278 ft 459 kts 46°
2026-04-22 09:11 55.72004 13.70342 41276 ft 459 kts 46°
2026-04-22 09:11 55.76399 13.78560 41270 ft 459 kts 46°
2026-04-22 09:12 55.80790 13.86800 41259 ft 458 kts 46°
2026-04-22 09:12 55.85164 13.95038 41254 ft 458 kts 47°
2026-04-22 09:13 55.89534 14.03295 41253 ft 457 kts 47°
2026-04-22 09:13 55.93893 14.11563 41235 ft 457 kts 47°
2026-04-22 09:14 55.98224 14.19806 41235 ft 458 kts 47°
2026-04-22 09:14 56.02574 14.28113 41239 ft 457 kts 47°
2026-04-22 09:15 56.06910 14.36424 41240 ft 456 kts 47°
2026-04-22 09:15 56.11235 14.44743 41239 ft 456 kts 47°
2026-04-22 09:16 56.15528 14.53029 41236 ft 456 kts 47°
2026-04-22 09:16 56.19837 14.61377 41232 ft 456 kts 47°
2026-04-22 09:17 56.24140 14.69742 41221 ft 456 kts 47°
2026-04-22 09:17 56.28434 14.78119 41238 ft 455 kts 47°
2026-04-22 09:18 56.32716 14.86502 41232 ft 455 kts 47°
2026-04-22 09:18 56.36991 14.94901 41227 ft 455 kts 47°
2026-04-22 09:19 56.41273 15.03345 41194 ft 455 kts 47°
2026-04-22 09:19 56.45537 15.11784 41206 ft 455 kts 47°
2026-04-22 09:20 56.49772 15.20196 41202 ft 454 kts 48°
2026-04-22 09:20 56.54023 15.28668 41205 ft 454 kts 48°
2026-04-22 09:21 56.58266 15.37157 41212 ft 454 kts 48°
2026-04-22 09:21 56.62506 15.45669 41216 ft 454 kts 48°
2026-04-22 09:22 56.66708 15.54136 41210 ft 454 kts 48°
2026-04-22 09:22 56.70932 15.62678 41212 ft 453 kts 48°
2026-04-22 09:23 56.75144 15.71227 41212 ft 452 kts 48°
2026-04-22 09:23 56.79348 15.79789 41210 ft 452 kts 48°
2026-04-22 09:24 56.83513 15.88304 41207 ft 452 kts 48°
2026-04-22 09:24 56.87700 15.96895 41200 ft 452 kts 49°
2026-04-22 09:25 56.91886 16.05515 41213 ft 452 kts 49°
2026-04-22 09:25 56.96057 16.14136 41208 ft 452 kts 49°
2026-04-22 09:26 57.00213 16.22757 41216 ft 452 kts 49°
2026-04-22 09:26 57.04346 16.31363 41205 ft 451 kts 49°
2026-04-22 09:27 57.08497 16.40036 41204 ft 451 kts 49°
2026-04-22 09:27 57.12638 16.48721 41204 ft 451 kts 49°
2026-04-22 09:28 57.16768 16.57415 41203 ft 449 kts 49°
2026-04-22 09:28 57.20874 16.66090 41202 ft 449 kts 49°
2026-04-22 09:29 57.24953 16.74741 41202 ft 449 kts 49°
2026-04-22 09:29 57.29047 16.83454 41203 ft 449 kts 49°
2026-04-22 09:30 57.33145 16.92210 41203 ft 449 kts 49°
2026-04-22 09:30 57.37225 17.00959 41211 ft 447 kts 49°
2026-04-22 09:31 57.41285 17.09699 41204 ft 446 kts 49°
2026-04-22 09:31 57.45304 17.18380 41207 ft 446 kts 49°
2026-04-22 09:32 57.49346 17.27143 41198 ft 446 kts 49°
2026-04-22 09:32 57.53380 17.35923 41192 ft 446 kts 50°
2026-04-22 09:33 57.57410 17.44727 41195 ft 446 kts 50°
2026-04-22 09:33 57.60751 17.52050 41197 ft 446 kts 50°
2026-04-22 09:34 57.65427 17.62337 41186 ft 446 kts 50°
2026-04-22 09:34 57.68782 17.69747 41191 ft 446 kts 50°
2026-04-22 09:35 57.74755 17.82995 41193 ft 446 kts 50°
2026-04-22 09:35 57.78753 17.91906 41183 ft 445 kts 50°
2026-04-22 09:36 57.82715 18.00769 41186 ft 443 kts 50°
2026-04-22 09:36 57.86669 18.09648 41181 ft 442 kts 50°
2026-04-22 09:37 57.90585 18.18474 41181 ft 442 kts 50°
2026-04-22 09:37 57.94529 18.27397 41179 ft 442 kts 50°
2026-04-22 09:38 57.98458 18.36317 41175 ft 442 kts 50°
2026-04-22 09:38 58.02356 18.45206 41172 ft 441 kts 50°
2026-04-22 09:39 58.06264 18.54147 41170 ft 441 kts 50°
2026-04-22 09:39 58.10158 18.63090 41170 ft 441 kts 50°
2026-04-22 09:40 58.14048 18.72060 41164 ft 441 kts 50°
2026-04-22 09:40 58.17932 18.81048 41171 ft 441 kts 50°
2026-04-22 09:41 58.21815 18.90069 41152 ft 441 kts 50°
2026-04-22 09:41 58.25661 18.99039 41154 ft 441 kts 50°
2026-04-22 09:42 58.29529 19.08094 41149 ft 441 kts 50°
2026-04-22 09:42 58.33393 19.17173 41149 ft 441 kts 50°
2026-04-22 09:43 58.37252 19.26277 41145 ft 441 kts 50°
2026-04-22 09:43 58.41093 19.35374 41136 ft 441 kts 50°
2026-04-22 09:44 58.44912 19.44452 41138 ft 441 kts 51°
2026-04-22 09:44 58.48743 19.53595 41136 ft 441 kts 51°
2026-04-22 09:45 58.52575 19.62775 41131 ft 441 kts 51°
2026-04-22 09:45 58.56395 19.71964 41124 ft 441 kts 51°
2026-04-22 09:46 58.60214 19.81187 41133 ft 441 kts 51°
2026-04-22 09:46 58.64022 19.90418 41118 ft 441 kts 51°
2026-04-22 09:47 58.67824 19.99671 41114 ft 440 kts 51°
2026-04-22 09:47 58.71611 20.08921 41108 ft 440 kts 51°
2026-04-22 09:48 58.75388 20.18185 41105 ft 440 kts 51°
2026-04-22 09:48 58.79139 20.27422 41103 ft 440 kts 51°
2026-04-22 09:49 58.82903 20.36727 41099 ft 440 kts 51°
2026-04-22 09:49 58.86669 20.46075 41096 ft 439 kts 51°
2026-04-22 09:50 58.90406 20.55388 41089 ft 438 kts 51°
2026-04-22 09:50 58.94130 20.64703 41089 ft 438 kts 51°
2026-04-22 09:51 58.97853 20.74051 41084 ft 438 kts 51°
2026-04-22 09:51 59.01572 20.83430 41079 ft 438 kts 51°
2026-04-22 09:52 59.05191 20.93006 41080 ft 441 kts 56°
2026-04-22 09:52 59.08427 21.03040 41069 ft 440 kts 56°
2026-04-22 09:53 59.11609 21.13174 41066 ft 439 kts 56°
2026-04-22 09:53 59.14784 21.23357 41056 ft 439 kts 56°
2026-04-22 09:54 59.17933 21.33478 41053 ft 439 kts 56°
2026-04-22 09:54 59.21098 21.43682 41047 ft 439 kts 56°
2026-04-22 09:55 59.24251 21.53886 41047 ft 439 kts 56°
2026-04-22 09:55 59.27394 21.64115 41042 ft 438 kts 56°
2026-04-22 09:56 59.30506 21.74290 41031 ft 438 kts 56°
2026-04-22 09:56 59.33633 21.84559 41032 ft 439 kts 56°
2026-04-22 09:57 59.36762 21.94848 41020 ft 439 kts 56°
2026-04-22 09:57 59.39873 22.05143 41015 ft 439 kts 56°
2026-04-22 09:58 59.42979 22.15472 40789 ft 435 kts 56°
2026-04-22 09:58 59.44517 22.20605 40087 ft 435 kts 55°
2026-04-22 09:58 59.46052 22.25735 39394 ft 435 kts 55°
2026-04-22 09:59 59.47584 22.30865 38788 ft 433 kts 55°
2026-04-22 09:59 59.49104 22.35969 38040 ft 430 kts 55°
2026-04-22 09:59 59.50611 22.41038 37254 ft 428 kts 55°
2026-04-22 09:59 59.52091 22.46026 36460 ft 427 kts 55°
2026-04-22 10:00 59.53588 22.51082 35691 ft 425 kts 55°
2026-04-22 10:00 59.55067 22.56099 34922 ft 423 kts 54°
2026-04-22 10:00 59.56541 22.61113 34146 ft 421 kts 54°
2026-04-22 10:00 59.58004 22.66098 33264 ft 420 kts 54°
2026-04-22 10:01 59.59473 22.71105 32137 ft 424 kts 55°
2026-04-22 10:01 59.60966 22.76198 30954 ft 430 kts 55°
2026-04-22 10:01 59.62483 22.81378 29646 ft 438 kts 55°
2026-04-22 10:01 59.64017 22.86633 28359 ft 444 kts 55°
2026-04-22 10:02 59.65549 22.91913 27494 ft 441 kts 55°
2026-04-22 10:02 59.67057 22.97136 26761 ft 436 kts 56°
2026-04-22 10:02 59.68553 23.02332 26044 ft 432 kts 56°
2026-04-22 10:02 59.70032 23.07479 25344 ft 428 kts 55°
2026-04-22 10:03 59.71507 23.12596 24614 ft 425 kts 55°
2026-04-22 10:03 59.72948 23.17601 23926 ft 423 kts 56°
2026-04-22 10:03 59.74403 23.22667 23158 ft 422 kts 56°
2026-04-22 10:03 59.75850 23.27716 22399 ft 418 kts 56°
2026-04-22 10:04 59.77272 23.32696 21700 ft 414 kts 56°
2026-04-22 10:04 59.78686 23.37656 20999 ft 410 kts 55°
2026-04-22 10:04 59.80080 23.42555 20391 ft 405 kts 55°
2026-04-22 10:04 59.81433 23.47335 20239 ft 389 kts 55°
2026-04-22 10:05 59.82729 23.51926 20097 ft 373 kts 55°
2026-04-22 10:05 59.83973 23.56335 19963 ft 358 kts 55°
2026-04-22 10:05 59.85168 23.60572 19846 ft 344 kts 54°
2026-04-22 10:05 59.86317 23.64643 19699 ft 331 kts 54°
2026-04-22 10:06 59.87420 23.68575 19581 ft 319 kts 54°
2026-04-22 10:06 59.88480 23.72364 19469 ft 307 kts 54°
2026-04-22 10:06 59.89502 23.76017 19305 ft 299 kts 54°
2026-04-22 10:06 59.90502 23.79582 19021 ft 298 kts 54°
2026-04-22 10:07 59.91477 23.83295 18613 ft 300 kts 58°
2026-04-22 10:07 59.92308 23.87065 18261 ft 301 kts 60°
2026-04-22 10:07 59.93123 23.90902 17874 ft 299 kts 60°
2026-04-22 10:07 59.93933 23.94718 17530 ft 298 kts 60°
2026-04-22 10:08 59.94737 23.98509 17171 ft 297 kts 60°
2026-04-22 10:08 59.95540 24.02296 16821 ft 295 kts 60°
2026-04-22 10:08 59.96337 24.06060 16465 ft 294 kts 59°
2026-04-22 10:08 59.97131 24.09819 16140 ft 293 kts 59°
2026-04-22 10:09 59.97921 24.13563 15799 ft 292 kts 59°
2026-04-22 10:09 59.98706 24.17286 15470 ft 291 kts 59°
2026-04-22 10:09 59.99490 24.21014 15122 ft 289 kts 59°
2026-04-22 10:09 60.00266 24.24709 14822 ft 288 kts 59°
2026-04-22 10:10 60.01037 24.28390 14486 ft 286 kts 59°
2026-04-22 10:10 60.01805 24.32061 14164 ft 286 kts 59°
2026-04-22 10:10 60.02570 24.35719 13852 ft 285 kts 59°
2026-04-22 10:10 60.03332 24.39376 13502 ft 284 kts 59°
2026-04-22 10:11 60.04082 24.42978 13180 ft 283 kts 60°
2026-04-22 10:11 60.04837 24.46613 12863 ft 283 kts 60°
2026-04-22 10:11 60.05592 24.50250 12547 ft 282 kts 60°
2026-04-22 10:11 60.06340 24.53864 12236 ft 281 kts 60°
2026-04-22 10:12 60.07087 24.57479 11914 ft 280 kts 60°
2026-04-22 10:12 60.07830 24.61084 11619 ft 279 kts 60°
2026-04-22 10:12 60.08571 24.64684 11310 ft 278 kts 61°
2026-04-22 10:12 60.09308 24.68268 11005 ft 278 kts 61°
2026-04-22 10:13 60.10089 24.71784 10763 ft 274 kts 54°
2026-04-22 10:13 60.11202 24.74810 10542 ft 267 kts 41°
2026-04-22 10:13 60.12448 24.77515 10267 ft 266 kts 40°
2026-04-22 10:13 60.13727 24.80262 9968 ft 266 kts 41°
2026-04-22 10:14 60.14997 24.83000 9732 ft 279 kts 41°
2026-04-22 10:14 60.16350 24.85934 9655 ft 284 kts 42°
2026-04-22 10:14 60.17664 24.88811 9247 ft 282 kts 42°
2026-04-22 10:14 60.18991 24.91721 8750 ft 282 kts 41°
2026-04-22 10:15 60.20308 24.94613 8410 ft 278 kts 41°
2026-04-22 10:15 60.21609 24.97473 8113 ft 276 kts 41°
2026-04-22 10:15 60.22903 25.00318 7805 ft 274 kts 41°
2026-04-22 10:15 60.24190 25.03149 7504 ft 273 kts 41°
2026-04-22 10:16 60.25447 25.05920 7217 ft 270 kts 40°
2026-04-22 10:16 60.26708 25.08702 6907 ft 268 kts 40°
2026-04-22 10:16 60.27958 25.11468 6625 ft 265 kts 40°
2026-04-22 10:16 60.29190 25.14194 6340 ft 262 kts 40°
2026-04-22 10:17 60.30394 25.16869 6185 ft 250 kts 40°
2026-04-22 10:17 60.31534 25.19407 6040 ft 238 kts 39°
2026-04-22 10:17 60.32623 25.21818 5903 ft 228 kts 39°
2026-04-22 10:17 60.33687 25.24176 5770 ft 227 kts 38°
2026-04-22 10:18 60.34752 25.26535 5562 ft 227 kts 38°
2026-04-22 10:18 60.35851 25.28789 5360 ft 222 kts 30°
2026-04-22 10:18 60.37186 25.30223 4851 ft 218 kts 13°
2026-04-22 10:18 60.38666 25.31231 4135 ft 230 kts 11°
2026-04-22 10:19 60.40213 25.31916 3686 ft 222 kts 356°
2026-04-22 10:19 60.41622 25.31264 3552 ft 205 kts 334°
2026-04-22 10:19 60.42867 25.30023 3424 ft 194 kts 331°
2026-04-22 10:19 60.44034 25.28760 3283 ft 185 kts 330°
2026-04-22 10:20 60.45087 25.27410 3147 ft 174 kts 317°
2026-04-22 10:20 60.45513 25.25240 3022 ft 170 kts 271°
2026-04-22 10:20 60.44925 25.23178 2898 ft 183 kts 229°
2026-04-22 10:20 60.43949 25.21479 2787 ft 186 kts 229°
2026-04-22 10:21 60.42995 25.19701 2619 ft 185 kts 234°
2026-04-22 10:21 60.42099 25.17846 2510 ft 183 kts 235°
2026-04-22 10:21 60.41238 25.15974 2398 ft 181 kts 236°
2026-04-22 10:21 60.40392 25.14097 2240 ft 180 kts 236°
2026-04-22 10:22 60.39547 25.12218 2119 ft 181 kts 236°
2026-04-22 10:22 60.38700 25.10346 1873 ft 178 kts 234°
2026-04-22 10:22 60.38159 25.09158 1711 ft 169 kts 234°
2026-04-22 10:22 60.37173 25.06984 1428 ft 149 kts 234°
2026-04-22 10:23 60.36496 25.05486 1224 ft 139 kts 234°
2026-04-22 10:23 60.35871 25.04105 1037 ft 127 kts 234°
2026-04-22 10:23 60.35484 25.03248 918 ft 123 kts 233°
2026-04-22 10:23 60.34905 25.01968 746 ft 123 kts 233°
2026-04-22 10:24 60.34323 25.00684 592 ft 125 kts 234°
2026-04-22 10:24 60.33726 24.99346 419 ft 132 kts 233°
2026-04-22 10:24 60.33099 24.97988 237 ft 132 kts 231°